Wind_Speed
32 33 33 33 34 34 35 35 36 36 36 37 37 37 37 37 37 37 37 37 37 37 38 39 40 40 40 40 39 39 38 39 38 39 40 40 41 41 41 43 43 44 43
33 34 34 35 35 36 36 37 37 37 37 37 37 37 37 37 37 37 37 37 37 38 39 40 41 42 42 42 42 41 41 41 41 40 40 42 42 43 43 44 44 44 44
34 35 36 36 37 38 38 38 39 39 39 39 38 38 37 37 37 38 37 37 38 39 40 41 41 43 43 44 44 44 44 44 43 42 42 42 43 44 45 45 46 46 46
35 36 37 38 39 40 40 40 41 41 40 40 40 39 38 38 38 38 38 39 39 39 40 41 42 43 44 44 45 46 47 46 46 45 45 45 44 45 44 47 47 47 47
37 38 39 40 41 41 42 42 42 42 41 41 41 40 39 39 39 39 38 38 39 39 40 42 43 44 45 46 47 47 49 49 48 48 47 47 46 47 46 47 47 48 49
38 39 40 41 42 43 43 43 43 43 42 42 41 40 40 40 40 39 39 39 39 39 40 42 44 45 46 48 48 49 50 51 51 51 50 49 49 48 47 47 47 48 49
39 40 41 42 43 44 44 44 44 44 43 42 41 41 41 41 40 39 39 39 39 39 40 41 42 43 46 48 49 50 51 52 53 54 53 51 52 50 49 48 48 48 48
40 42 43 43 44 45 45 45 45 44 44 42 42 42 41 40 39 38 39 39 38 38 38 39 40 41 43 46 47 49 51 52 54 55 55 54 53 52 50 49 49 50 50
42 43 44 44 45 45 45 45 45 45 44 43 42 42 40 39 39 39 38 37 37 37 37 37 38 39 41 43 46 47 49 51 53 55 56 56 56 54 53 52 51 51 50
43 43 44 45 46 46 46 46 45 45 44 43 43 41 39 38 39 39 38 36 35 35 35 36 36 37 39 41 42 45 47 50 53 55 56 57 58 57 55 53 52 51 52
43 45 45 46 46 46 46 46 46 45 44 43 42 41 39 39 38 37 35 33 32 31 31 32 33 34 36 39 41 43 46 49 52 54 56 58 58 58 58 54 53 51 52
44 45 46 46 47 47 46 46 45 45 43 42 41 40 39 38 37 34 32 31 28 27 27 27 28 30 33 35 38 40 44 48 51 53 54 55 57 58 59 58 55 53 52
45 46 46 47 47 47 46 45 45 44 42 42 41 39 37 36 34 32 29 27 25 23 23 22 22 24 27 30 34 38 41 45 48 50 52 53 55 58 59 59 57 55 54
46 47 47 48 47 47 46 45 44 43 42 41 39 37 35 34 32 30 27 25 22 21 19 17 17 18 21 25 30 34 37 41 44 47 49 51 54 56 57 58 59 57 56
47 48 48 48 46 46 46 45 44 42 41 40 38 36 33 32 30 27 24 22 20 18 16 14 13 14 16 20 25 29 33 36 40 44 46 49 51 54 55 56 57 58 57
48 48 48 47 46 46 45 44 43 42 40 39 37 35 32 30 27 24 22 20 19 16 13 11 10 10 12 15 20 24 29 33 37 40 43 45 47 51 53 54 55 57 57
48 48 47 47 46 46 44 42 40 40 39 38 36 33 30 27 24 23 21 19 17 14 11 9 7 7 9 12 16 20 25 29 34 37 40 41 43 46 50 52 52 54 55
48 47 46 45 44 44 43 41 39 38 36 36 34 32 28 25 23 22 20 17 15 13 10 8 6 4 6 10 15 18 21 24 28 32 35 38 40 42 46 50 51 52 52
48 46 45 43 43 42 41 40 38 37 35 34 33 30 27 24 22 21 19 16 14 11 9 6 4 2 5 8 13 16 19 22 26 28 31 34 36 39 42 46 50 50 50
47 45 43 41 41 40 39 38 37 35 34 33 31 28 26 24 22 20 18 14 12 10 8 6 3 2 3 7 11 14 17 20 23 26 29 32 34 37 40 43 47 48 48
46 43 41 39 39 38 37 36 35 33 32 31 29 27 26 24 22 19 16 13 11 9 7 5 2 2 3 6 9 13 16 18 21 23 26 29 32 35 37 41 44 45 47
44 41 39 38 36 35 35 34 33 31 30 28 28 26 25 24 22 19 16 12 9 7 6 4 2 2 4 6 8 12 14 16 19 21 24 27 31 34 37 40 43 45 46
42 39 37 35 34 33 33 32 31 29 28 26 26 25 24 22 20 18 15 11 9 6 4 2 1 2 4 6 8 11 14 16 18 20 23 26 29 33 36 38 39 42 45
40 36 34 32 32 31 30 29 28 27 25 24 24 23 22 21 18 16 14 11 9 6 4 2 2 3 4 5 7 9 12 15 17 19 21 24 27 29 32 35 38 39 42
37 34 32 30 29 28 27 26 25 24 23 22 21 21 20 19 17 16 13 11 9 7 4 3 2 3 4 6 7 9 11 13 15 18 21 24 26 28 29 31 35 38 40
34 32 29 27 27 26 25 24 23 21 21 19 19 19 19 18 16 14 13 11 10 8 5 3 2 3 5 5 7 8 11 13 14 17 20 23 25 27 28 30 32 35 37
Wind_Direction
331 330 329 329 328 327 325 324 321 318 314 310 306 302 299 295 291 287 281 276 271 266 262 258 255 253 250 248 246 245 242 237 233 232 230 229 228 225 223 221 220 217 217
332 331 331 330 330 329 327 326 323 320 316 312 309 305 301 298 294 289 284 278 272 267 263 259 256 253 250 248 245 243 241 237 233 231 229 228 228 226 223 220 218 216 216
333 333 333 332 331 330 329 327 325 322 318 315 311 307 303 300 295 290 286 280 275 270 265 261 257 253 249 247 244 242 240 237 234 231 228 227 227 226 224 221 218 217 215
334 334 333 332 331 331 329 328 326 323 320 317 313 309 305 301 296 292 288 283 278 273 268 263 258 254 250 247 244 241 239 237 234 231 230 229 227 225 225 222 219 218 215
334 334 334 333 332 331 329 328 326 323 321 318 314 310 306 303 299 294 290 285 280 275 270 265 259 255 250 247 244 241 238 235 233 230 230 230 228 225 225 222 220 218 215
334 334 333 333 332 330 329 327 326 323 321 318 315 311 307 304 301 297 292 288 283 278 272 267 261 256 251 246 243 240 237 234 232 229 228 228 226 223 223 222 220 218 216
334 333 333 332 331 330 329 327 326 324 321 319 316 313 310 306 302 299 295 290 285 280 274 268 263 258 251 246 242 239 236 233 230 227 226 225 224 221 221 221 220 218 217
333 333 332 332 331 330 329 327 326 324 322 320 318 315 312 309 305 302 298 293 288 282 275 269 264 259 252 246 241 237 234 232 229 227 225 223 222 221 220 219 218 217 216
332 332 332 332 331 330 329 328 327 325 323 321 319 317 315 312 309 306 301 296 290 283 276 271 266 259 252 246 241 236 233 231 228 226 224 223 220 218 217 217 217 216 216
332 332 331 331 331 331 330 328 327 326 325 323 322 320 317 315 312 309 304 299 293 286 279 272 265 259 251 245 240 235 232 229 227 225 223 221 219 218 216 215 215 217 216
332 331 331 331 331 331 330 329 328 327 326 325 324 322 320 317 315 312 307 303 297 290 282 274 265 258 250 243 238 233 230 227 225 223 221 220 218 218 216 214 212 213 214
330 331 331 331 331 331 330 329 329 329 328 328 327 324 322 320 319 316 312 308 303 296 288 278 267 257 249 241 235 231 228 225 223 222 220 219 218 217 217 215 212 212 211
330 330 331 331 331 331 331 330 330 330 329 329 329 327 326 325 323 320 317 314 310 304 296 284 270 258 247 238 232 227 225 223 221 220 220 219 217 217 218 217 214 211 210
328 329 330 331 331 331 331 331 331 331 331 331 331 331 330 329 328 326 323 321 317 313 306 291 274 258 245 236 229 226 223 221 220 218 218 218 217 216 217 218 217 213 211
328 328 329 331 332 332 332 332 332 332 332 333 333 332 332 331 332 331 329 328 326 321 313 300 278 258 244 233 226 222 220 219 217 216 217 215 215 215 215 217 217 215 213
328 328 329 330 331 331 332 333 333 333 333 334 334 334 334 334 334 334 332 331 331 328 319 307 288 261 241 228 220 217 215 214 212 213 213 213 213 213 213 214 216 215 213
328 328 328 329 330 331 332 333 333 334 334 335 336 336 336 336 336 336 336 336 337 335 329 318 298 270 240 222 215 212 210 210 211 211 211 210 210 211 211 212 213 212 212
327 327 328 329 330 331 332 333 333 334 334 336 337 338 337 337 337 337 338 338 340 340 337 330 313 275 232 213 205 203 204 204 205 206 207 207 208 208 209 209 210 210 210
325 326 327 328 329 331 333 333 333 334 335 337 338 339 339 337 337 337 336 336 338 339 338 337 326 270 226 208 200 198 199 201 202 203 204 204 205 205 206 207 207 207 208
324 324 325 326 328 330 332 333 333 334 336 338 340 341 340 338 337 337 337 335 336 337 336 328 321 271 211 201 198 196 197 198 200 202 204 204 204 202 202 204 205 205 204
321 322 323 324 326 328 330 332 332 334 336 339 341 341 340 340 340 339 337 334 332 333 332 325 299 241 197 187 191 194 195 196 197 201 203 203 202 201 202 202 202 203 203
318 319 320 322 324 326 329 330 331 332 334 338 341 342 342 341 344 343 340 338 333 330 332 325 285 219 202 196 193 193 195 196 199 200 203 203 203 202 201 200 201 203 203
314 315 316 318 321 324 327 328 331 332 333 337 341 343 345 346 348 351 349 344 340 336 334 328 270 210 197 197 199 201 200 198 199 201 201 201 201 201 200 200 202 204 206
310 310 312 314 317 320 323 326 329 332 334 337 341 344 347 349 351 352 353 351 345 338 329 310 251 219 201 191 191 195 198 200 200 200 200 198 198 199 200 201 203 204 204
305 306 307 309 313 316 319 323 327 329 333 337 341 344 347 349 352 353 355 354 350 342 324 293 241 215 207 205 199 196 195 194 196 198 198 198 197 199 200 201 202 203 204
301 301 301 304 308 312 315 318 323 327 330 335 341 345 348 350 353 356 359 2 2 359 349 319 254 216 209 209 202 197 195 196 197 196 197 198 200 201 200 199 200 201 202
Height
5781 5776 5771 5765 5760 5755 5749 5744 5738 5733 5728 5723 5718 5714 5710 5707 5704 5702 5701 5699 5699 5699 5700 5702 5703 5705 5708 5711 5715 5718 5722 5726 5731 5736 5740 5745 5750 5756 5761 5767 5772 5779 5786
5775 5770 5764 5759 5753 5747 5741 5736 5730 5724 5719 5713 5708 5704 5700 5696 5693 5690 5688 5687 5687 5687 5688 5689 5691 5693 5696 5699 5703 5707 5711 5715 5721 5726 5730 5735 5741 5746 5752 5758 5764 5770 5778
5769 5763 5757 5752 5746 5740 5733 5727 5721 5715 5709 5704 5698 5693 5689 5685 5681 5678 5676 5674 5673 5674 5674 5675 5677 5679 5682 5686 5690 5694 5699 5704 5709 5715 5720 5725 5731 5736 5742 5748 5755 5762 5769
5763 5757 5751 5745 5738 5732 5725 5719 5712 5706 5700 5694 5688 5682 5678 5673 5669 5666 5663 5661 5660 5659 5659 5661 5662 5665 5668 5671 5676 5681 5686 5691 5697 5703 5708 5714 5720 5726 5732 5739 5746 5753 5760
5756 5750 5744 5737 5731 5724 5717 5710 5703 5696 5690 5684 5677 5672 5666 5662 5657 5653 5650 5648 5646 5645 5644 5645 5647 5649 5652 5656 5661 5666 5672 5678 5684 5691 5697 5703 5710 5716 5723 5729 5736 5743 5751
5750 5743 5737 5730 5723 5716 5709 5702 5694 5687 5680 5673 5667 5661 5655 5650 5645 5640 5637 5634 5631 5630 5629 5629 5630 5633 5636 5640 5645 5651 5657 5663 5671 5678 5685 5692 5699 5706 5713 5720 5727 5735 5743
5743 5737 5730 5723 5715 5708 5700 5693 5685 5678 5671 5663 5656 5650 5644 5638 5632 5627 5623 5620 5617 5614 5613 5613 5613 5616 5619 5623 5628 5634 5641 5648 5656 5664 5672 5679 5687 5695 5703 5710 5717 5725 5734
5736 5730 5723 5715 5708 5700 5692 5684 5676 5669 5661 5653 5646 5639 5633 5626 5620 5615 5610 5606 5602 5599 5598 5597 5598 5600 5602 5607 5612 5618 5625 5633 5641 5650 5659 5666 5674 5682 5691 5699 5707 5715 5723
5730 5723 5715 5708 5700 5692 5684 5676 5668 5660 5651 5643 5636 5629 5622 5615 5608 5603 5597 5592 5588 5585 5583 5583 5583 5584 5587 5591 5597 5603 5610 5617 5625 5634 5643 5652 5661 5670 5679 5687 5696 5705 5713
5723 5716 5708 5700 5692 5684 5676 5668 5659 5651 5642 5634 5626 5618 5611 5605 5598 5591 5584 5579 5575 5572 5569 5568 5568 5570 5572 5576 5581 5588 5596 5603 5610 5619 5629 5638 5648 5657 5667 5677 5686 5695 5704
5716 5709 5701 5693 5685 5676 5668 5659 5651 5642 5634 5625 5617 5609 5601 5594 5587 5580 5573 5568 5563 5559 5556 5555 5555 5556 5558 5562 5567 5574 5581 5588 5596 5605 5615 5625 5634 5645 5655 5665 5675 5685 5694
5710 5702 5694 5686 5677 5669 5660 5651 5642 5634 5625 5617 5608 5600 5592 5584 5577 5570 5564 5558 5553 5548 5545 5543 5542 5543 5545 5549 5555 5561 5568 5575 5584 5593 5603 5613 5623 5633 5643 5654 5664 5674 5684
5702 5695 5687 5678 5669 5661 5652 5644 5635 5626 5618 5609 5600 5592 5584 5576 5569 5562 5556 5550 5545 5540 5537 5534 5533 5533 5535 5538 5543 5549 5556 5564 5573 5582 5592 5602 5611 5621 5631 5642 5652 5663 5672
5695 5687 5679 5671 5662 5653 5645 5636 5628 5619 5611 5602 5593 5585 5577 5570 5563 5556 5550 5544 5539 5534 5530 5527 5526 5526 5527 5530 5535 5540 5547 5554 5563 5572 5581 5590 5600 5610 5621 5632 5642 5653 5663
5688 5680 5672 5663 5655 5646 5638 5629 5621 5612 5604 5596 5587 5579 5572 5565 5558 5551 5545 5539 5534 5530 5526 5523 5522 5521 5522 5524 5528 5533 5539 5546 5554 5563 5572 5581 5591 5601 5611 5622 5632 5643 5654
5680 5672 5664 5656 5648 5640 5632 5623 5613 5606 5598 5590 5582 5574 5567 5560 5553 5547 5541 5536 5531 5527 5523 5520 5519 5518 5519 5520 5524 5528 5534 5540 5547 5556 5564 5573 5582 5592 5602 5613 5623 5634 5645
5672 5665 5657 5649 5641 5633 5625 5617 5609 5601 5592 5584 5577 5569 5562 5556 5550 5544 5538 5533 5529 5525 5521 5519 5517 5516 5517 5518 5521 5525 5530 5535 5542 5550 5558 5567 5575 5584 5594 5605 5615 5626 5636
5664 5657 5650 5642 5634 5627 5619 5611 5604 5596 5588 5580 5573 5565 5559 5553 5547 5542 5536 5532 5528 5524 5521 5518 5517 5516 5516 5517 5519 5523 5527 5533 5539 5546 5553 5561 5570 5578 5587 5598 5608 5618 5629
5656 5649 5642 5635 5628 5621 5614 5606 5598 5591 5583 5576 5569 5562 5556 5550 5545 5539 5535 5530 5527 5524 5521 5519 5517 5516 5516 5517 5519 5522 5526 5531 5537 5543 5550 5557 5565 5573 5582 5591 5601 5611 5622
5648 5641 5635 5628 5622 5615 5608 5601 5594 5587 5580 5573 5566 5559 5553 5547 5542 5537 5533 5529 5526 5523 5521 5519 5518 5517 5517 5517 5519 5522 5526 5530 5535 5541 5547 5554 5561 5569 5577 5586 5596 5606 5616
5639 5633 5628 5622 5616 5610 5603 5597 5590 5583 5576 5570 5563 5557 5551 5545 5540 5535 5531 5528 5525 5523 5521 5519 5518 5518 5518 5519 5520 5523 5526 5530 5534 5540 5545 5551 5558 5565 5573 5582 5591 5600 5610
5631 5626 5621 5615 5610 5604 5598 5592 5586 5580 5573 5567 5561 5555 5549 5544 5538 5534 5530 5527 5524 5522 5521 5520 5519 5519 5519 5520 5521 5524 5526 5530 5534 5538 5543 5549 5555 5562 5570 5578 5587 5596 5605
5622 5618 5613 5608 5604 5599 5593 5588 5582 5576 5570 5564 5559 5553 5548 5542 5537 5533 5529 5526 5524 5522 5521 5520 5519 5519 5520 5521 5522 5524 5526 5530 5533 5537 5542 5547 5553 5559 5567 5575 5582 5591 5600
5613 5609 5605 5602 5597 5593 5588 5583 5578 5573 5567 5562 5557 5552 5546 5542 5537 5533 5529 5527 5524 5522 5521 5520 5520 5520 5520 5521 5523 5524 5526 5529 5532 5536 5541 5546 5551 5557 5564 5571 5579 5586 5595
5604 5601 5598 5594 5591 5587 5583 5579 5574 5570 5565 5560 5555 5550 5546 5541 5537 5533 5530 5527 5524 5522 5521 5520 5520 5520 5520 5521 5523 5524 5526 5529 5532 5536 5540 5545 5550 5556 5562 5569 5576 5583 5591
5595 5592 5590 5587 5585 5581 5578 5574 5570 5566 5562 5558 5554 5550 5545 5541 5537 5534 5530 5528 5525 5523 5521 5520 5520 5520 5521 5521 5522 5524 5526 5528 5531 5535 5539 5544 5549 5554 5560 5566 5572 5580 5587